Time,TemperatureF,DewpointF,PressureIn,WindDirection,WindDirectionDegrees,WindSpeedMPH,WindSpeedGustMPH,Humidity,HourlyPrecipIn,Conditions,Clouds,dailyrainin,SolarRadiationWatts/m^2,SoftwareType,DateUTC
2013-07-31 00:02:00,60.0,59.0,-100.00,South,182,1.0,2.0,97,0.00,,,0.00,0.000000,,2013-07-31 04:02:00,
2013-07-31 00:12:00,60.0,59.0,-100.00,South,182,1.0,2.0,97,0.00,,,0.00,0.000000,,2013-07-31 04:12:00,
2013-07-31 00:42:00,59.0,58.0,-100.00,NNW,328,0.0,2.0,98,0.00,,,0.00,0.000000,,2013-07-31 04:42:00,
2013-07-31 00:52:00,59.0,58.0,-100.00,NNW,328,0.0,2.0,98,0.00,,,0.00,0.000000,,2013-07-31 04:52:00,
2013-07-31 01:02:00,59.0,58.0,-100.00,NNW,328,0.0,2.0,98,0.00,,,0.00,0.000000,,2013-07-31 05:02:00,
2013-07-31 01:12:00,59.0,58.0,-100.00,NNW,328,0.0,2.0,98,0.00,,,0.00,0.000000,,2013-07-31 05:12:00,
2013-07-31 01:43:00,58.0,58.0,-100.00,SW,229,1.0,2.0,99,0.00,,,0.00,0.000000,,2013-07-31 05:43:00,
2013-07-31 01:52:00,58.0,58.0,-100.00,SW,229,1.0,2.0,99,0.00,,,0.00,0.000000,,2013-07-31 05:52:00,
2013-07-31 02:02:00,58.0,58.0,-100.00,SW,229,1.0,2.0,99,0.00,,,0.00,0.000000,,2013-07-31 06:02:00,
2013-07-31 02:12:00,58.0,58.0,-100.00,SW,229,1.0,2.0,99,0.00,,,0.00,0.000000,,2013-07-31 06:12:00,
2013-07-31 02:43:00,58.0,58.0,-100.00,NE,51,1.0,2.0,99,0.00,,,0.00,0.000000,,2013-07-31 06:43:00,
2013-07-31 02:53:00,58.0,58.0,-100.00,NE,51,1.0,2.0,99,0.00,,,0.00,0.000000,,2013-07-31 06:53:00,
2013-07-31 03:02:00,58.0,58.0,-100.00,NE,51,1.0,2.0,99,0.00,,,0.00,0.000000,,2013-07-31 07:02:00,
2013-07-31 03:12:00,58.0,58.0,-100.00,NE,51,1.0,2.0,99,0.00,,,0.00,0.000000,,2013-07-31 07:12:00,
2013-07-31 03:43:00,57.0,57.0,-100.00,SSE,148,1.0,3.0,99,0.00,,,0.00,0.000000,,2013-07-31 07:43:00,
2013-07-31 03:52:00,57.0,57.0,-100.00,SSE,148,1.0,3.0,99,0.00,,,0.00,0.000000,,2013-07-31 07:52:00,
2013-07-31 04:02:00,57.0,57.0,-100.00,SSE,148,1.0,3.0,99,0.00,,,0.00,0.000000,,2013-07-31 08:02:00,
2013-07-31 04:12:00,57.0,57.0,-100.00,SSE,148,1.0,3.0,99,0.00,,,0.00,0.000000,,2013-07-31 08:12:00,
2013-07-31 04:42:00,58.0,58.0,-100.00,NNW,337,1.0,2.0,100,0.00,,,0.00,0.000000,,2013-07-31 08:42:00,
2013-07-31 04:53:00,58.0,58.0,-100.00,NNW,337,1.0,2.0,100,0.00,,,0.00,0.000000,,2013-07-31 08:53:00,
2013-07-31 05:02:00,58.0,58.0,-100.00,NNW,337,1.0,2.0,100,0.00,,,0.00,0.000000,,2013-07-31 09:02:00,
2013-07-31 05:12:00,58.0,58.0,-100.00,NNW,337,1.0,2.0,100,0.00,,,0.00,0.000000,,2013-07-31 09:12:00,
2013-07-31 05:44:00,57.0,57.0,-100.00,North,353,1.0,2.0,100,0.00,,,0.00,0.000000,,2013-07-31 09:44:00,
2013-07-31 05:52:00,57.0,57.0,-100.00,North,353,1.0,2.0,100,0.00,,,0.00,0.000000,,2013-07-31 09:52:00,
2013-07-31 06:02:00,57.0,57.0,-100.00,North,353,1.0,2.0,100,0.00,,,0.00,0.000000,,2013-07-31 10:02:00,
2013-07-31 06:12:00,57.0,57.0,-100.00,North,353,1.0,2.0,100,0.00,,,0.00,0.000000,,2013-07-31 10:12:00,
2013-07-31 06:44:00,57.0,57.0,-100.00,NNE,30,1.0,3.0,100,0.00,,,0.00,0.000000,,2013-07-31 10:44:00,
2013-07-31 06:52:00,57.0,57.0,-100.00,NNE,30,1.0,3.0,100,0.00,,,0.00,0.000000,,2013-07-31 10:52:00,
2013-07-31 07:03:00,57.0,57.0,-100.00,NNE,30,1.0,3.0,100,0.00,,,0.00,0.000000,,2013-07-31 11:03:00,
2013-07-31 07:12:00,57.0,57.0,-100.00,NNE,30,1.0,3.0,100,0.00,,,0.00,0.000000,,2013-07-31 11:12:00,
2013-07-31 07:43:00,58.0,58.0,-100.00,ENE,62,1.0,2.0,100,0.00,,,0.00,16.000000,,2013-07-31 11:43:00,
2013-07-31 07:53:00,58.0,58.0,-100.00,ENE,62,1.0,2.0,100,0.00,,,0.00,16.000000,,2013-07-31 11:53:00,
2013-07-31 08:03:00,58.0,58.0,-100.00,ENE,62,1.0,2.0,100,0.00,,,0.00,16.000000,,2013-07-31 12:03:00,
2013-07-31 08:12:00,58.0,58.0,-100.00,ENE,62,1.0,2.0,100,0.00,,,0.00,16.000000,,2013-07-31 12:12:00,
2013-07-31 08:43:00,59.0,59.0,-100.00,NE,35,2.0,6.0,100,0.00,,,0.00,64.000000,,2013-07-31 12:43:00,
2013-07-31 08:53:00,59.0,59.0,-100.00,NE,35,2.0,6.0,100,0.00,,,0.00,64.000000,,2013-07-31 12:53:00,
2013-07-31 09:02:00,59.0,59.0,-100.00,NE,35,2.0,6.0,100,0.00,,,0.00,64.000000,,2013-07-31 13:02:00,
2013-07-31 09:12:00,59.0,59.0,-100.00,NE,35,2.0,6.0,100,0.00,,,0.00,64.000000,,2013-07-31 13:12:00,
2013-07-31 09:43:00,62.0,62.0,-100.00,NW,314,2.0,4.0,99,0.00,,,0.00,120.000000,,2013-07-31 13:43:00,
2013-07-31 09:53:00,62.0,62.0,-100.00,NW,314,2.0,4.0,99,0.00,,,0.00,120.000000,,2013-07-31 13:53:00,
2013-07-31 10:02:00,62.0,62.0,-100.00,NW,314,2.0,4.0,99,0.00,,,0.00,120.000000,,2013-07-31 14:02:00,
2013-07-31 10:13:00,62.0,62.0,-100.00,NW,314,2.0,4.0,99,0.00,,,0.00,120.000000,,2013-07-31 14:13:00,
2013-07-31 10:43:00,67.0,61.0,-100.00,South,177,7.0,10.0,82,0.00,,,0.00,344.000000,,2013-07-31 14:43:00,
2013-07-31 10:53:00,67.0,61.0,-100.00,South,177,7.0,10.0,82,0.00,,,0.00,344.000000,,2013-07-31 14:53:00,
2013-07-31 11:02:00,67.0,61.0,-100.00,South,177,7.0,10.0,82,0.00,,,0.00,344.000000,,2013-07-31 15:02:00,
2013-07-31 11:12:00,67.0,61.0,-100.00,South,177,7.0,10.0,82,0.00,,,0.00,344.000000,,2013-07-31 15:12:00,
2013-07-31 11:44:00,65.0,59.0,-100.00,SSE,159,6.0,12.0,80,0.00,,,0.00,294.000000,,2013-07-31 15:44:00,
2013-07-31 11:53:00,65.0,59.0,-100.00,SSE,159,6.0,12.0,80,0.00,,,0.00,294.000000,,2013-07-31 15:53:00,
2013-07-31 12:02:00,65.0,59.0,-100.00,SSE,159,6.0,12.0,80,0.00,,,0.00,294.000000,,2013-07-31 16:02:00,
2013-07-31 12:12:00,65.0,59.0,-100.00,SSE,159,6.0,12.0,80,0.00,,,0.00,294.000000,,2013-07-31 16:12:00,
2013-07-31 12:44:00,71.0,63.0,-100.00,SW,214,4.0,10.0,77,0.00,,,0.00,314.000000,,2013-07-31 16:44:00,
2013-07-31 12:53:00,71.0,63.0,-100.00,SW,214,4.0,10.0,77,0.00,,,0.00,314.000000,,2013-07-31 16:53:00,
2013-07-31 13:03:00,71.0,63.0,-100.00,SW,214,4.0,10.0,77,0.00,,,0.00,314.000000,,2013-07-31 17:03:00,
2013-07-31 13:13:00,71.0,63.0,-100.00,SW,214,4.0,10.0,77,0.00,,,0.00,314.000000,,2013-07-31 17:13:00,
2013-07-31 13:43:00,74.0,61.0,-100.00,WSW,237,4.0,8.0,64,0.00,,,0.00,444.000000,,2013-07-31 17:43:00,
2013-07-31 13:53:00,74.0,61.0,-100.00,WSW,237,4.0,8.0,64,0.00,,,0.00,444.000000,,2013-07-31 17:53:00,
2013-07-31 14:02:00,74.0,61.0,-100.00,WSW,237,4.0,8.0,64,0.00,,,0.00,444.000000,,2013-07-31 18:02:00,
2013-07-31 14:13:00,74.0,61.0,-100.00,WSW,237,4.0,8.0,64,0.00,,,0.00,444.000000,,2013-07-31 18:13:00,
2013-07-31 14:43:00,75.0,62.0,-100.00,SSE,156,3.0,5.0,64,0.00,,,0.00,392.000000,,2013-07-31 18:43:00,
2013-07-31 14:52:00,75.0,62.0,-100.00,SSE,156,3.0,5.0,64,0.00,,,0.00,392.000000,,2013-07-31 18:52:00,
2013-07-31 15:03:00,75.0,62.0,-100.00,SSE,156,3.0,5.0,64,0.00,,,0.00,392.000000,,2013-07-31 19:03:00,
2013-07-31 15:12:00,75.0,62.0,-100.00,SSE,156,3.0,5.0,64,0.00,,,0.00,392.000000,,2013-07-31 19:12:00,
2013-07-31 15:43:00,74.0,58.0,-100.00,East,101,2.0,6.0,58,0.00,,,0.00,359.000000,,2013-07-31 19:43:00,
2013-07-31 15:53:00,74.0,58.0,-100.00,East,101,2.0,6.0,58,0.00,,,0.00,359.000000,,2013-07-31 19:53:00,
2013-07-31 16:03:00,74.0,58.0,-100.00,East,101,2.0,6.0,58,0.00,,,0.00,359.000000,,2013-07-31 20:03:00,
2013-07-31 16:13:00,74.0,58.0,-100.00,East,101,2.0,6.0,58,0.00,,,0.00,359.000000,,2013-07-31 20:13:00,
2013-07-31 16:43:00,73.0,60.0,-100.00,South,185,2.0,4.0,63,0.00,,,0.00,205.000000,,2013-07-31 20:43:00,
2013-07-31 16:53:00,73.0,60.0,-100.00,South,185,2.0,4.0,63,0.00,,,0.00,205.000000,,2013-07-31 20:53:00,
2013-07-31 17:03:00,73.0,60.0,-100.00,South,185,2.0,4.0,63,0.00,,,0.00,205.000000,,2013-07-31 21:03:00,
2013-07-31 17:13:00,73.0,60.0,-100.00,South,185,2.0,4.0,63,0.00,,,0.00,205.000000,,2013-07-31 21:13:00,
2013-07-31 17:43:00,66.0,62.0,-100.00,South,173,6.0,11.0,86,0.01,,,0.01,93.000000,,2013-07-31 21:43:00,
2013-07-31 17:53:00,66.0,62.0,-100.00,South,173,6.0,11.0,86,0.01,,,0.01,93.000000,,2013-07-31 21:53:00,
2013-07-31 18:02:00,66.0,62.0,-100.00,South,173,6.0,11.0,86,0.01,,,0.01,93.000000,,2013-07-31 22:02:00,
2013-07-31 18:13:00,66.0,62.0,-100.00,South,173,6.0,11.0,86,0.01,,,0.01,93.000000,,2013-07-31 22:13:00,
2013-07-31 18:43:00,64.0,63.0,-100.00,WSW,246,3.0,10.0,95,0.09,,,0.10,42.000000,,2013-07-31 22:43:00,
2013-07-31 18:53:00,64.0,63.0,-100.00,WSW,246,3.0,10.0,95,0.09,,,0.10,42.000000,,2013-07-31 22:53:00,
2013-07-31 19:02:00,64.0,63.0,-100.00,WSW,246,3.0,10.0,95,0.09,,,0.10,42.000000,,2013-07-31 23:02:00,
2013-07-31 19:12:00,64.0,63.0,-100.00,WSW,246,3.0,10.0,95,0.09,,,0.10,42.000000,,2013-07-31 23:12:00,
2013-07-31 19:43:00,65.0,63.0,-100.00,South,169,4.0,7.0,94,0.01,,,0.11,51.000000,,2013-07-31 23:43:00,
2013-07-31 19:53:00,65.0,63.0,-100.00,South,169,4.0,7.0,94,0.01,,,0.11,51.000000,,2013-07-31 23:53:00,
2013-07-31 20:03:00,65.0,63.0,-100.00,South,169,4.0,7.0,94,0.01,,,0.11,51.000000,,2013-08-01 00:03:00,
2013-07-31 20:12:00,65.0,63.0,-100.00,South,169,4.0,7.0,94,0.01,,,0.11,51.000000,,2013-08-01 00:12:00,
2013-07-31 20:43:00,64.0,63.0,-100.00,South,189,3.0,6.0,95,0.00,,,0.11,27.000000,,2013-08-01 00:43:00,
2013-07-31 20:52:00,64.0,63.0,-100.00,South,189,3.0,6.0,95,0.00,,,0.11,27.000000,,2013-08-01 00:52:00,
2013-07-31 21:03:00,64.0,63.0,-100.00,South,189,3.0,6.0,95,0.00,,,0.11,27.000000,,2013-08-01 01:03:00,
2013-07-31 21:12:00,64.0,63.0,-100.00,South,189,3.0,6.0,95,0.00,,,0.11,27.000000,,2013-08-01 01:12:00,
2013-07-31 21:43:00,64.0,63.0,-100.00,SSE,155,2.0,6.0,97,0.00,,,0.11,2.000000,,2013-08-01 01:43:00,
2013-07-31 21:53:00,64.0,63.0,-100.00,SSE,155,2.0,6.0,97,0.00,,,0.11,2.000000,,2013-08-01 01:53:00,
2013-07-31 22:02:00,64.0,63.0,-100.00,SSE,155,2.0,6.0,97,0.00,,,0.11,2.000000,,2013-08-01 02:02:00,
2013-07-31 22:12:00,64.0,63.0,-100.00,SSE,155,2.0,6.0,97,0.00,,,0.11,2.000000,,2013-08-01 02:12:00,
2013-07-31 22:43:00,64.0,64.0,-100.00,WSW,253,1.0,4.0,99,0.00,,,0.11,0.000000,,2013-08-01 02:43:00,
2013-07-31 22:53:00,64.0,64.0,-100.00,WSW,253,1.0,4.0,99,0.00,,,0.11,0.000000,,2013-08-01 02:53:00,
2013-07-31 23:02:00,64.0,64.0,-100.00,WSW,253,1.0,4.0,99,0.00,,,0.11,0.000000,,2013-08-01 03:02:00,
2013-07-31 23:12:00,64.0,64.0,-100.00,WSW,253,1.0,4.0,99,0.00,,,0.11,0.000000,,2013-08-01 03:12:00,
2013-07-31 23:43:00,64.0,64.0,-100.00,ESE,117,1.0,3.0,99,0.00,,,0.11,0.000000,,2013-08-01 03:43:00,
2013-07-31 23:53:00,64.0,64.0,-100.00,ESE,117,1.0,3.0,99,0.00,,,0.11,0.000000,,2013-08-01 03:53:00,